Location: Borotín
(49.5055°N, 14.6142°E)
Time: 07:38:16
(UTC+00:00)

USA 308 - Pass Details

Date: 27 May 2022
Orbit: 549 x 558 km, 54.0° (Epoch: 14 June)

Event Time Altitude Azimuth Distance (km) Brightness Sun altitude
Rises 02:12:54 0° 273° (W) 2,739 6.0 -7.2°
Reaches altitude 10° 02:15:12 10° 280° (W) 1,847 5.2 -6.9°
Maximum altitude 02:19:15 46° 354° (N) 763 3.9 -6.4°
Drops below altitude 10° 02:23:19 10° 69° (ENE) 1,854 6.8 -5.9°
Sets 02:25:39 0° 75° (ENE) 2,751 7.6 -5.7°
